Location: Härggis
(46.9540°N, 8.4897°E)
Time: 23:25:21
(UTC+00:00)

FENGYUN 3A - Pass Details

Date: 27 May 2022
Orbit: 823 x 836 km, 98.5° (Epoch: 02 July)

Event Time Altitude Azimuth Distance (km) Brightness Sun altitude
Rises 02:51:20 0° 15° (NNE) 3,372 7.9 -7.2°
Reaches altitude 10° 02:53:42 10° 16° (NNE) 2,435 7.1 -6.9°
Maximum altitude 02:59:06 79° 103° (ESE) 845 3.8 -6.2°
Drops below altitude 10° 03:04:29 10° 191° (S) 2,423 5.6 -5.5°
Sets 03:06:49 0° 193° (SSW) 3,353 6.3 -5.2°
